INTELSAT IVA F4

operational
NORAD ID: 10024 Int'l Des: 1977-041 Owner: INTEL Country: I-INT
HEOCIRCULAR

Über INTELSAT IVA F4

Beschreibung wird geladen...

Live-Position

3D-Globus wird geladen...

Nächste Überflüge

Höhenverlauf

Altitude vs Time

uPlot chart will show altitude changes over time

Zweizeiliger Elementsatz

1 10024U 77041A 26062.81032858 .00000090 00000-0 00000-0 0 9996
2 10024 9.1041 311.8147 0012850 279.3456 272.3188 0.99440099 45937
Epoch: 3. März 2026 • Age: 43 hours

Aktueller Status

Höhe 36022.7 km
Geschwindigkeit 3.07 km/s
Subsatellitenpunkt -1.14°S, 47.02°E
Startdatum 26. Mai 1977
Alter 48.7 years
Typ communications

Technische Details

Klassifizierung Payload
Masse 769.00 kg
Trockenmasse 630.00 kg
Gesamtmasse 1515.00 kg
Länge 7.00 m
Durchmesser 2.40 m
Spannweite 7.00 m
Form Cyl + 2 Dish
Hersteller HSES
Bus-Typ HS-353
Phasenstatus Renamed
Besitzer/Staat INTEL/I-INT

Große Konstellationen

Loading constellations...